[[{"header":{"parameterUnit":"m.s-1","parameterCategory":1,"la1":30.2991,"la2":30.254,"lo1":-89.0895,"lo2":-89.0444,"dy":0.0017,"dx":0.0017,"nx":28,"ny":28,"refTime":"2023-08-29T21:00:00:Z","depth":0,"parameterNumber":2,"parameterNumberName":"U-component_of_WINDS"},"data":[0,0,0,0,0,0,0,0,0,0,0,0,0,0,0,0,0,0,0,0,0,0,0,0,0,0,0,0,0,0,0,0,0,0,0,0,0,0,0,0,0,0,0,0,0,0,0,0,0,0,0,0,0,0,0,0,0,0,0.4169,0.4168,0,0.4017,0.4015,0.4014,0.4018,0.402,0.4022,0.4024,0.3867,0.3861,0.3855,0,0,0,0,0,0,0,0,0,0,0,0,0,0.4464,0.4459,0.417,0.4168,0.4166,0.4017,0.4015,0.4013,0.4017,0.402,0.4023,0.4025,0.3869,0.3861,0.3854,0,0,0,0,0,0,0,0,0,0,0,0,0,0.4327,0.4457,0.417,0.415,0.4147,0.4018,0.4015,0.4013,0.4017,0.402,0.4023,0.4026,0.3871,0.3862,0.3853,0.3733,0,0,0.3825,0.3821,0,0,0,0,0,0,0,0,0.4334,0.4316,0.4155,0.4151,0.4147,0.404,0.4062,0.3919,0.4016,0.4066,0.4024,0.4028,0.3922,0.3908,0.3873,0.3726,0.3719,0.3824,0.3818,0.3814,0.3812,0,0,0,0,0,0,0,0.4344,0.4322,0.4109,0.4153,0.4148,0.4149,0.4133,0.4035,0.3978,0.4062,0.4062,0.4044,0.392,0.3882,0.3869,0.3717,0.3824,0.3816,0.381,0.3807,0.3466,0.3463,0,0,0,0,0,0,0.4358,0.433,0.4114,0.4105,0.4251,0.4141,0.4123,0.4071,0.3979,0.3968,0.4041,0.4045,0.3896,0.388,0.3864,0.3718,0.3815,0.3806,0.3801,0.347,0.3466,0.3462,0,0,0,0,0,0,0.4364,0.4338,0.412,0.4217,0.419,0.4133,0.4074,0.4066,0.4028,0.3964,0.3954,0.4013,0.3898,0.3877,0.3766,0.3713,0.3802,0.3793,0.3474,0.3468,0.3464,0.3427,0,0,0,0,0,0,0.4373,0.4341,0.4294,0.4216,0.4185,0.4025,0.4071,0.4061,0.4012,0.4015,0.3934,0.3923,0.3899,0.378,0.3757,0.3702,0.3786,0.3478,0.3472,0.3465,0.3432,0.3421,0.3411,0,0,0,0,0,0.4383,0.4289,0.4292,0.4266,0.4125,0.4022,0.4004,0.3977,0.4008,0.3961,0.392,0.3926,0.3723,0.3769,0.3743,0.3684,0.3482,0.3473,0.3466,0.3437,0.3423,0.3411,0,0,0,0,0,0,0.4362,0.4279,0.4281,0.4159,0.4098,0.4023,0.3963,0.3963,0.3891,0.3897,0.3867,0.3849,0.3738,0.37,0.3753,0.3565,0.3606,0.3593,0.3593,0.3579,0.3569,0.358,0.3779,0,0,0,0,0,0.4343,0.4266,0.4198,0.4097,0.4066,0.402,0.3974,0.3959,0.3894,0.3868,0.3819,0.3755,0.3677,0.3626,0.3551,0.3428,0.341,0.3375,0.3364,0.3356,0.3344,0.3277,0.3261,0.3436,0.3436,0.3436,0,0,0.4303,0.4248,0.4201,0.4091,0.4042,0.3963,0.3998,0.3912,0.3854,0.3855,0.3748,0.371,0.3637,0.352,0.3466,0.3485,0.3292,0.3345,0.3339,0.3332,0.3267,0.3251,0.3236,0.343,0.3431,0.3432,0,0,0.419,0.4141,0.4052,0.4002,0.3928,0.3898,0.3877,0.3802,0.3777,0.367,0.367,0.36,0.3465,0.3414,0.337,0.3241,0.3244,0.3217,0.3161,0.3096,0.3082,0.307,0.3024,0.3008,0.3206,0.3206,0.3206,0,0.415,0.4031,0.4006,0.3921,0.3873,0.3872,0.3782,0.3735,0.3639,0.3606,0.3629,0.3462,0.3413,0.3285,0.3254,0.3218,0.3193,0.3226,0.3086,0.3074,0.3062,0.3018,0.3001,0.3203,0.3204,0.3204,0.3204,0,0.3985,0.3903,0.3841,0.3749,0.3694,0.3607,0.357,0.3517,0.3508,0.3476,0.3368,0.3309,0.3223,0.3191,0.3181,0.3062,0.3076,0.3093,0.3134,0.3043,0.3001,0.2984,0.3199,0.32,0.3201,0.3202,0,0,0.3852,0.3751,0.3728,0.3687,0.3606,0.3542,0.3456,0.3372,0.3328,0.3263,0.3189,0.3077,0.3093,0.3044,0.3028,0.2971,0.2874,0.2995,0.2993,0.2975,0.274,0.2727,0.2708,0.2876,0.2873,0.287,0.2746,0,0.3731,0.3578,0.3554,0.3419,0.3343,0.3342,0.3267,0.321,0.3178,0.3109,0.3075,0.2996,0.3023,0.2993,0.2937,0.2897,0.2826,0.2906,0.2808,0.2804,0.2825,0.2686,0.2672,0.2558,0.273,0.2727,0.2725,0,0.3568,0.35,0.3358,0.3289,0.3256,0.3189,0.3111,0.3045,0.2981,0.2962,0.2908,0.29,0.2811,0.2856,0.2734,0.2789,0.2748,0.2722,0.2717,0.2707,0.2759,0.2672,0.2521,0.2504,0.2699,0.2701,0.2703,0,0.3486,0.3359,0.3258,0.3223,0.3139,0.3092,0.3055,0.2994,0.2946,0.2878,0.2846,0.2769,0.2726,0.2667,0.2638,0.2674,0.2518,0.2561,0.25,0.2501,0.2466,0.2468,0.2306,0.244,0.244,0.2441,0.2441,0,0.3353,0.3266,0.322,0.3157,0.3061,0.3035,0.294,0.2904,0.285,0.2781,0.2775,0.2711,0.2677,0.2608,0.2585,0.2487,0.2468,0.2451,0.2446,0.2451,0.2453,0.2423,0.243,0.2436,0.2437,0.2438,0.2439,0,0.3244,0.321,0.3099,0.303,0.3011,0.2943,0.2884,0.2823,0.2793,0.2706,0.2685,0.2637,0.2555,0.2521,0.2421,0.2406,0.2294,0.2295,0.2316,0.2314,0.2255,0.2261,0.2067,0.2041,0.2192,0.2191,0.219,0,0.3161,0.3094,0.3019,0.2973,0.2935,0.286,0.2811,0.2784,0.2734,0.2656,0.2605,0.2524,0.2457,0.2327,0.2284,0.2207,0.2206,0.2144,0.2195,0.2203,0.2206,0.221,0.2203,0.2134,0.2133,0.2132,0.2131,0,0.3017,0.3004,0.2934,0.2859,0.2801,0.274,0.268,0.2643,0.2607,0.2551,0.2468,0.2416,0.2315,0.2234,0.2156,0.2118,0.2118,0.2115,0.2097,0.2101,0.2116,0.2108,0.229,0.2119,0.212,0.2121,0.2122,0.2122,0.2919,0.286,0.2798,0.2721,0.2674,0.2619,0.2559,0.2523,0.2453,0.2368,0.2357,0.2268,0.2207,0.2102,0.2061,0.1992,0.2008,0.1981,0.1975,0.1968,0.1965,0.2128,0.1978,0.1978,0.1978,0.1978,0.1979,0,0.2775,0.2736,0.2665,0.2583,0.2522,0.2529,0.2464,0.2413,0.2335,0.2278,0.2214,0.2119,0.2042,0.1993,0.1915,0.1869,0.1867,0.185,0.1852,0.1844,0.1955,0.1978,0.1852,0.1852,0.1852,0.1852,0.1853,0.1853,0.2693,0.2595,0.2574,0.2453,0.2414,0.2328,0.229,0.224,0.2194,0.2089,0.2025,0.1994,0.1941,0.186,0.1789,0.1777,0.1749,0.173,0.1719,0.1823,0.1836,0.1848,0.187,0.1724,0.1724,0.1614,0.1613,0.1612]},{"header":{"parameterUnit":"m.s-1","parameterCategory":1,"la1":30.2991,"la2":30.254,"lo1":-89.0895,"lo2":-89.0444,"dy":0.0017,"dx":0.0017,"nx":28,"ny":28,"refTime":"2023-08-29T21:00:00:Z","depth":0,"parameterNumber":3,"parameterNumberName":"V-component_of_WINDS"},"data":[0,0,0,0,0,0,0,0,0,0,0,0,0,0,0,0,0,0,0,0,0,0,0,0,0,0,0,0,0,0,0,0,0,0,0,0,0,0,0,0,0,0,0,0,0,0,0,0,0,0,0,0,0,0,0,0,0,0,-1.4885,-1.4886,0,-1.4969,-1.497,-1.4971,-1.4988,-1.4987,-1.4986,-1.4986,-1.5077,-1.508,-1.5083,0,0,0,0,0,0,0,0,0,0,0,0,0,-1.4741,-1.4744,-1.4885,-1.4886,-1.4887,-1.4969,-1.497,-1.4972,-1.4988,-1.4987,-1.4986,-1.4985,-1.5076,-1.508,-1.5083,0,0,0,0,0,0,0,0,0,0,0,0,0,-1.4813,-1.4745,-1.4884,-1.4905,-1.4907,-1.4969,-1.497,-1.4972,-1.4988,-1.4987,-1.4986,-1.4985,-1.5075,-1.5079,-1.5084,-1.5133,0,0,-1.5098,-1.51,0,0,0,0,0,0,0,0,-1.4809,-1.4818,-1.4901,-1.4903,-1.4906,-1.4967,-1.4953,-1.5026,-1.4988,-1.4958,-1.4986,-1.4985,-1.5042,-1.5049,-1.5067,-1.5137,-1.5141,-1.5098,-1.5101,-1.5103,-1.5105,0,0,0,0,0,0,0,-1.4804,-1.4814,-1.4918,-1.4902,-1.4905,-1.4911,-1.492,-1.4967,-1.5004,-1.496,-1.4962,-1.4971,-1.5043,-1.5063,-1.5069,-1.5142,-1.5098,-1.5102,-1.5105,-1.5107,-1.5257,-1.5258,0,0,0,0,0,0,-1.4794,-1.481,-1.4916,-1.4921,-1.4854,-1.4914,-1.4924,-1.4949,-1.5004,-1.5011,-1.4972,-1.4972,-1.5055,-1.5064,-1.5073,-1.5134,-1.5103,-1.5108,-1.511,-1.5256,-1.5257,-1.5259,0,0,0,0,0,0,-1.4791,-1.4804,-1.4912,-1.4866,-1.488,-1.4918,-1.4945,-1.4951,-1.497,-1.5013,-1.502,-1.4985,-1.5055,-1.5066,-1.5118,-1.5137,-1.511,-1.5114,-1.5255,-1.5256,-1.5258,-1.5256,0,0,0,0,0,0,-1.4787,-1.4802,-1.482,-1.4866,-1.4882,-1.4954,-1.4946,-1.4953,-1.4978,-1.4978,-1.5027,-1.5034,-1.5055,-1.5111,-1.5122,-1.5143,-1.5117,-1.5253,-1.5255,-1.5258,-1.5254,-1.5258,-1.526,0,0,0,0,0,-1.4782,-1.4818,-1.4821,-1.4834,-1.4905,-1.4955,-1.4965,-1.4987,-1.4979,-1.4998,-1.5025,-1.5032,-1.5133,-1.5116,-1.5129,-1.5151,-1.5252,-1.5255,-1.5257,-1.5253,-1.5257,-1.526,0,0,0,0,0,0,-1.4775,-1.4824,-1.4829,-1.488,-1.4913,-1.4958,-1.4983,-1.499,-1.5028,-1.5027,-1.5054,-1.5065,-1.5115,-1.5138,-1.5118,-1.5202,-1.5192,-1.5198,-1.5184,-1.5188,-1.5191,-1.5185,-1.5121,0,0,0,0,0,-1.4779,-1.4814,-1.4855,-1.4897,-1.4913,-1.4945,-1.4967,-1.4981,-1.5018,-1.5032,-1.5063,-1.51,-1.5139,-1.5165,-1.5204,-1.5258,-1.5269,-1.528,-1.5283,-1.5285,-1.5289,-1.532,-1.5325,-1.5268,-1.5268,-1.5268,0,0,-1.4789,-1.482,-1.484,-1.4896,-1.4923,-1.496,-1.4957,-1.4996,-1.5024,-1.5039,-1.5089,-1.5113,-1.5155,-1.5208,-1.5232,-1.5229,-1.5308,-1.5288,-1.529,-1.5293,-1.5323,-1.5329,-1.5334,-1.527,-1.5269,-1.5269,0,0,-1.4824,-1.4851,-1.4888,-1.4915,-1.4956,-1.4977,-1.4986,-1.503,-1.5046,-1.5096,-1.5108,-1.5142,-1.521,-1.524,-1.5264,-1.531,-1.5319,-1.5323,-1.5338,-1.5367,-1.5371,-1.5376,-1.5393,-1.5399,-1.5327,-1.5327,-1.5327,0,-1.4832,-1.4886,-1.4907,-1.4945,-1.497,-1.4983,-1.5021,-1.5047,-1.51,-1.5117,-1.5112,-1.5197,-1.5227,-1.5286,-1.5297,-1.5316,-1.5328,-1.5317,-1.5369,-1.5373,-1.5378,-1.5394,-1.54,-1.5327,-1.5327,-1.5327,-1.5327,0,-1.4893,-1.493,-1.4956,-1.5004,-1.5031,-1.507,-1.5097,-1.5123,-1.5134,-1.5156,-1.5208,-1.5243,-1.529,-1.5305,-1.5317,-1.5367,-1.5363,-1.5363,-1.5354,-1.5383,-1.5399,-1.5406,-1.5327,-1.5327,-1.5327,-1.5327,0,0,-1.4928,-1.4986,-1.4995,-1.5017,-1.5063,-1.5093,-1.5132,-1.5176,-1.5197,-1.5233,-1.5268,-1.5324,-1.5324,-1.5351,-1.5367,-1.5393,-1.5428,-1.539,-1.5392,-1.5396,-1.5486,-1.5486,-1.5493,-1.5433,-1.5435,-1.5436,-1.5482,0,-1.4969,-1.5038,-1.5057,-1.5116,-1.5152,-1.5164,-1.5199,-1.5232,-1.5253,-1.5287,-1.5312,-1.5352,-1.5348,-1.5365,-1.5391,-1.5418,-1.5447,-1.5415,-1.5467,-1.5469,-1.5456,-1.5501,-1.5501,-1.5543,-1.5489,-1.549,-1.549,0,-1.5027,-1.5062,-1.5123,-1.5164,-1.518,-1.521,-1.5252,-1.5284,-1.5322,-1.5336,-1.5366,-1.5379,-1.5422,-1.541,-1.547,-1.5448,-1.5471,-1.5487,-1.549,-1.5496,-1.5482,-1.5509,-1.5557,-1.5564,-1.5501,-1.55,-1.5499,0,-1.5047,-1.5109,-1.5154,-1.5172,-1.5221,-1.5242,-1.5264,-1.53,-1.5325,-1.5362,-1.5379,-1.5421,-1.5444,-1.5477,-1.5502,-1.5491,-1.556,-1.555,-1.5574,-1.5574,-1.5589,-1.5588,-1.5642,-1.5602,-1.5602,-1.5602,-1.5602,0,-1.5092,-1.5129,-1.5163,-1.5191,-1.5233,-1.5256,-1.5298,-1.5321,-1.5353,-1.5386,-1.54,-1.5432,-1.5462,-1.5498,-1.5518,-1.5565,-1.5576,-1.5589,-1.5594,-1.5588,-1.5586,-1.5604,-1.5602,-1.5604,-1.5603,-1.5603,-1.5603,0,-1.5121,-1.5145,-1.5195,-1.5237,-1.5248,-1.5277,-1.5314,-1.5342,-1.5363,-1.5405,-1.5417,-1.5451,-1.5494,-1.5522,-1.5577,-1.559,-1.5642,-1.5646,-1.5629,-1.5631,-1.5654,-1.5651,-1.5721,-1.5732,-1.5685,-1.5685,-1.5685,0,-1.5148,-1.5177,-1.5221,-1.5243,-1.5265,-1.5301,-1.5326,-1.535,-1.5376,-1.542,-1.5443,-1.5486,-1.5522,-1.5591,-1.5622,-1.5664,-1.5669,-1.5691,-1.5676,-1.5669,-1.5671,-1.5669,-1.5672,-1.5694,-1.5694,-1.5694,-1.5695,0,-1.5194,-1.5205,-1.5239,-1.5278,-1.5307,-1.5339,-1.5372,-1.539,-1.5419,-1.5448,-1.5491,-1.5518,-1.5574,-1.5617,-1.5662,-1.5686,-1.5696,-1.5699,-1.5707,-1.5701,-1.569,-1.5697,-1.5636,-1.5697,-1.5697,-1.5697,-1.5697,-1.5697,-1.5224,-1.525,-1.5285,-1.5323,-1.5349,-1.5379,-1.5407,-1.5432,-1.5467,-1.5513,-1.5525,-1.557,-1.5608,-1.5669,-1.5694,-1.573,-1.5728,-1.5739,-1.5742,-1.5745,-1.5745,-1.5684,-1.5739,-1.5739,-1.5739,-1.5739,-1.5739,0,-1.5271,-1.5294,-1.5329,-1.5372,-1.5403,-1.5407,-1.5443,-1.5469,-1.5507,-1.554,-1.5575,-1.5625,-1.5667,-1.57,-1.5744,-1.5767,-1.5772,-1.5778,-1.5777,-1.5782,-1.5745,-1.5734,-1.5772,-1.5772,-1.5772,-1.5772,-1.5772,-1.5772,-1.53,-1.5344,-1.5358,-1.5416,-1.5439,-1.5482,-1.5502,-1.553,-1.5556,-1.561,-1.5644,-1.5665,-1.5699,-1.5745,-1.5784,-1.5793,-1.5809,-1.5814,-1.5824,-1.5788,-1.5785,-1.5781,-1.5771,-1.5817,-1.5817,-1.5858,-1.5858,-1.5859]}]]